AFR600 TFFR-TFFF

Flight info

Callsign AFR600
Flight time 0h 27m
Altitude 13000
Route KATIM2R KATIM KATIM2X
Aircraft A320/M-SDE2E3FGIJ1RWY/HB1

Departure

Time 2026-04-21 13:18
Airport Maryse Condé International Airport (TFFR)

Arrival

Time 2026-04-21 13:46
Airport Martinique Aimé Césaire International Airport (TFFF)
Time Latitude Longitude Altitude Speed Heading
2026-04-21 12:57 16.26920 -61.52672 21 ft 0 kts 10°
2026-04-21 13:09 16.26901 -61.52676 21 ft 4 kts 12°
2026-04-21 13:10 16.26875 -61.52683 23 ft 4 kts 16°
2026-04-21 13:10 16.26849 -61.52692 21 ft 4 kts 25°
2026-04-21 13:10 16.26827 -61.52706 22 ft 4 kts 53°
2026-04-21 13:10 16.26821 -61.52722 21 ft 1 kts 101°
2026-04-21 13:11 16.26822 -61.52726 21 ft 0 kts 101°
2026-04-21 13:13 16.26821 -61.52723 21 ft 3 kts 101°
2026-04-21 13:13 16.26812 -61.52674 21 ft 9 kts 101°
2026-04-21 13:13 16.26799 -61.52607 21 ft 11 kts 101°
2026-04-21 13:13 16.26784 -61.52526 21 ft 12 kts 101°
2026-04-21 13:14 16.26766 -61.52430 21 ft 14 kts 101°
2026-04-21 13:14 16.26747 -61.52324 22 ft 14 kts 101°
2026-04-21 13:14 16.26731 -61.52240 21 ft 10 kts 101°
2026-04-21 13:14 16.26694 -61.52184 21 ft 10 kts 156°
2026-04-21 13:15 16.26630 -61.52189 21 ft 9 kts 190°
2026-04-21 13:15 16.26573 -61.52201 21 ft 8 kts 191°
2026-04-21 13:15 16.26527 -61.52183 23 ft 8 kts 126°
2026-04-21 13:15 16.26510 -61.52119 24 ft 9 kts 101°
2026-04-21 13:16 16.26499 -61.52059 28 ft 7 kts 100°
2026-04-21 13:16 16.26488 -61.52001 30 ft 10 kts 101°
2026-04-21 13:16 16.26475 -61.51927 31 ft 11 kts 101°
2026-04-21 13:16 16.26461 -61.51851 33 ft 11 kts 101°
2026-04-21 13:17 16.26420 -61.51786 33 ft 12 kts 157°
2026-04-21 13:17 16.26337 -61.51796 30 ft 12 kts 192°
2026-04-21 13:17 16.26287 -61.51832 30 ft 8 kts 246°
2026-04-21 13:17 16.26292 -61.51895 30 ft 16 kts 281°
2026-04-21 13:18 16.26354 -61.52233 26 ft 86 kts 281°
2026-04-21 13:18 16.26510 -61.53077 20 ft 148 kts 281°
2026-04-21 13:18 16.26735 -61.54274 251 ft 173 kts 283°
2026-04-21 13:18 16.26963 -61.55492 931 ft 172 kts 283°
2026-04-21 13:19 16.27198 -61.56722 1643 ft 174 kts 284°
2026-04-21 13:19 16.27442 -61.57988 2132 ft 190 kts 284°
2026-04-21 13:19 16.27712 -61.59415 2421 ft 212 kts 284°
2026-04-21 13:19 16.27984 -61.61018 2716 ft 238 kts 275°
2026-04-21 13:20 16.27618 -61.62734 3070 ft 263 kts 238°
2026-04-21 13:20 16.26230 -61.64009 3650 ft 274 kts 200°
2026-04-21 13:20 16.24363 -61.64223 4507 ft 272 kts 165°
2026-04-21 13:20 16.22720 -61.63324 5395 ft 269 kts 131°
2026-04-21 13:21 16.21653 -61.61734 6252 ft 272 kts 116°
2026-04-21 13:21 16.20847 -61.59940 7064 ft 276 kts 112°
2026-04-21 13:21 16.20067 -61.58092 7899 ft 281 kts 113°
2026-04-21 13:21 16.19219 -61.56242 8712 ft 286 kts 116°
2026-04-21 13:22 16.18294 -61.54427 9504 ft 290 kts 118°
2026-04-21 13:22 16.17275 -61.52589 10223 ft 298 kts 120°
2026-04-21 13:22 16.16158 -61.50676 10481 ft 321 kts 121°
2026-04-21 13:22 16.14930 -61.48651 10845 ft 338 kts 124°
2026-04-21 13:23 16.13370 -61.46802 11470 ft 344 kts 139°
2026-04-21 13:23 16.11379 -61.45408 12148 ft 348 kts 154°
2026-04-21 13:23 16.09091 -61.44557 12779 ft 353 kts 168°
2026-04-21 13:23 16.06651 -61.44269 13010 ft 354 kts 178°
2026-04-21 13:24 16.04246 -61.44135 13066 ft 346 kts 178°
2026-04-21 13:24 16.01854 -61.44013 13073 ft 343 kts 178°
2026-04-21 13:24 15.99477 -61.43892 13069 ft 342 kts 178°
2026-04-21 13:24 15.97103 -61.43766 13076 ft 342 kts 178°
2026-04-21 13:25 15.94733 -61.43637 13074 ft 342 kts 178°
2026-04-21 13:25 15.92359 -61.43506 13077 ft 341 kts 178°
2026-04-21 13:25 15.89987 -61.43374 13073 ft 341 kts 177°
2026-04-21 13:25 15.87617 -61.43243 13079 ft 341 kts 178°
2026-04-21 13:26 15.85245 -61.43112 13076 ft 341 kts 178°
2026-04-21 13:26 15.82903 -61.42982 13077 ft 341 kts 178°
2026-04-21 13:26 15.80530 -61.42850 13080 ft 342 kts 178°
2026-04-21 13:26 15.78156 -61.42717 13076 ft 342 kts 177°
2026-04-21 13:27 15.75783 -61.42582 13077 ft 342 kts 178°
2026-04-21 13:27 15.73413 -61.42449 13081 ft 341 kts 178°
2026-04-21 13:27 15.71041 -61.42316 13080 ft 341 kts 178°
2026-04-21 13:27 15.68670 -61.42182 13081 ft 341 kts 178°
2026-04-21 13:28 15.66299 -61.42049 13077 ft 341 kts 178°
2026-04-21 13:28 15.63928 -61.41917 13088 ft 341 kts 178°
2026-04-21 13:28 15.61556 -61.41784 13087 ft 341 kts 178°
2026-04-21 13:28 15.59213 -61.41653 13088 ft 342 kts 178°
2026-04-21 13:29 15.56843 -61.41520 13087 ft 342 kts 177°
2026-04-21 13:29 15.54470 -61.41388 13087 ft 342 kts 177°
2026-04-21 13:29 15.52094 -61.41257 13094 ft 342 kts 178°
2026-04-21 13:29 15.49720 -61.41126 13085 ft 342 kts 178°
2026-04-21 13:30 15.47347 -61.40997 13090 ft 341 kts 178°
2026-04-21 13:30 15.44975 -61.40869 13041 ft 341 kts 178°
2026-04-21 13:30 15.42603 -61.40740 13036 ft 341 kts 178°
2026-04-21 13:30 15.40262 -61.40609 13039 ft 341 kts 178°
2026-04-21 13:31 15.37907 -61.40284 13038 ft 342 kts 171°
2026-04-21 13:31 15.35564 -61.39848 13044 ft 342 kts 171°
2026-04-21 13:31 15.33225 -61.39415 13046 ft 341 kts 171°
2026-04-21 13:31 15.30891 -61.38983 13044 ft 341 kts 171°
2026-04-21 13:32 15.28549 -61.38550 13042 ft 341 kts 171°
2026-04-21 13:32 15.26215 -61.38121 13046 ft 341 kts 171°
2026-04-21 13:32 15.23882 -61.37694 13047 ft 340 kts 171°
2026-04-21 13:32 15.21549 -61.37266 13050 ft 340 kts 171°
2026-04-21 13:33 15.19251 -61.36842 13053 ft 340 kts 171°
2026-04-21 13:33 15.16919 -61.36411 13052 ft 340 kts 171°
2026-04-21 13:33 15.14587 -61.35980 13059 ft 340 kts 171°
2026-04-21 13:33 15.12256 -61.35552 13062 ft 340 kts 171°
2026-04-21 13:34 15.09923 -61.35126 13066 ft 340 kts 171°
2026-04-21 13:34 15.07590 -61.34702 13067 ft 341 kts 171°
2026-04-21 13:34 15.05256 -61.34278 13067 ft 341 kts 171°
2026-04-21 13:34 15.02951 -61.33857 13061 ft 341 kts 172°
2026-04-21 13:35 15.00625 -61.33431 12972 ft 336 kts 172°
2026-04-21 13:35 14.98351 -61.33015 12726 ft 329 kts 172°
2026-04-21 13:35 14.96119 -61.32607 12485 ft 321 kts 172°
2026-04-21 13:35 14.93931 -61.32205 12142 ft 318 kts 171°
2026-04-21 13:36 14.91761 -61.31805 11734 ft 317 kts 171°
2026-04-21 13:36 14.89618 -61.31410 11563 ft 308 kts 171°
2026-04-21 13:36 14.87521 -61.31025 11216 ft 305 kts 171°
2026-04-21 13:36 14.85433 -61.30643 10860 ft 304 kts 172°
2026-04-21 13:37 14.83386 -61.30276 10513 ft 302 kts 173°
2026-04-21 13:37 14.81313 -61.30003 10131 ft 298 kts 176°
2026-04-21 13:37 14.79262 -61.29808 9444 ft 295 kts 177°
2026-04-21 13:37 14.77233 -61.29646 8872 ft 289 kts 178°
2026-04-21 13:38 14.75224 -61.29490 8447 ft 289 kts 176°
2026-04-21 13:38 14.73219 -61.29329 8028 ft 289 kts 176°
2026-04-21 13:38 14.71213 -61.29159 7599 ft 289 kts 175°
2026-04-21 13:38 14.69241 -61.28988 7181 ft 288 kts 174°
2026-04-21 13:39 14.67253 -61.28811 6781 ft 284 kts 174°
2026-04-21 13:39 14.65313 -61.28636 6304 ft 275 kts 173°
2026-04-21 13:39 14.63444 -61.28468 5862 ft 264 kts 173°
2026-04-21 13:39 14.61643 -61.28304 5459 ft 258 kts 173°
2026-04-21 13:40 14.59868 -61.28142 5212 ft 250 kts 172°
2026-04-21 13:40 14.58180 -61.27989 5138 ft 237 kts 172°
2026-04-21 13:40 14.56611 -61.27553 4786 ft 237 kts 147°
2026-04-21 13:40 14.55454 -61.26397 4464 ft 229 kts 118°
2026-04-21 13:41 14.54980 -61.24877 4237 ft 221 kts 92°
2026-04-21 13:41 14.55133 -61.23340 3978 ft 218 kts 79°
2026-04-21 13:41 14.55406 -61.21803 3706 ft 217 kts 79°
2026-04-21 13:41 14.55673 -61.20273 3430 ft 216 kts 79°
2026-04-21 13:42 14.55937 -61.18748 3154 ft 215 kts 79°
2026-04-21 13:42 14.56197 -61.17237 2862 ft 214 kts 79°
2026-04-21 13:42 14.56458 -61.15722 2597 ft 214 kts 79°
2026-04-21 13:42 14.56718 -61.14210 2323 ft 213 kts 80°
2026-04-21 13:43 14.56976 -61.12711 2043 ft 211 kts 79°
2026-04-21 13:43 14.57232 -61.11226 1771 ft 207 kts 79°
2026-04-21 13:43 14.57472 -61.09828 1540 ft 193 kts 79°
2026-04-21 13:43 14.57699 -61.08506 1264 ft 181 kts 79°
2026-04-21 13:44 14.57912 -61.07270 1034 ft 169 kts 78°
2026-04-21 13:44 14.58106 -61.06138 860 ft 150 kts 80°
2026-04-21 13:44 14.58283 -61.05111 667 ft 142 kts 78°
2026-04-21 13:44 14.58454 -61.04113 482 ft 139 kts 78°
2026-04-21 13:45 14.58625 -61.03127 328 ft 139 kts 80°
2026-04-21 13:45 14.58794 -61.02149 142 ft 138 kts 80°
2026-04-21 13:45 14.58955 -61.01195 28 ft 126 kts 78°
2026-04-21 13:45 14.59072 -61.00512 14 ft 58 kts 80°
2026-04-21 13:46 14.59126 -61.00203 15 ft 40 kts 80°
2026-04-21 13:46 14.59172 -61.00028 19 ft 13 kts 30°
2026-04-21 13:46 14.59256 -61.00033 19 ft 12 kts 351°
2026-04-21 13:46 14.59334 -61.00040 19 ft 11 kts 20°
2026-04-21 13:47 14.59363 -60.99971 18 ft 11 kts 81°
2026-04-21 13:47 14.59386 -60.99918 19 ft 7 kts 12°
2026-04-21 13:47 14.59432 -60.99912 17 ft 7 kts
2026-04-21 13:47 14.59445 -60.99911 17 ft 0 kts